Home   Weather   Campbelltown   Past weeks
Flag for Australia

Past Weather in Campbelltown, New South Wales, Australia — Yesterday and Last 2 Weeks

Now
49 °F

Cool.


Feels Like: 45 °F
Forecast: 66 / 40 °F
Wind: 8 mph from West

Location: Camden Airport

Current Time: Jul 18, 2019 at 11:32:26 pm

Latest Report: Jul 18, 2019 at 9:00 pm


Visibility: N/A

Pressure: 30.08 "Hg

Humidity: 57%

Dew Point: 34 °F

Location of CampbelltownLocation

Past Weather in Campbelltown — Graph

°F

Campbelltown Temperature Yesterday

Maximum temperature yesterday: 66 °F (at 3:00 pm)
Minimum temperature yesterday: 42 °F (at 6:00 am)
Average temperature yesterday: 54 °F

High & Low Weather Summary for the Past Weeks

 TemperatureHumidityPressure
High68 °F (Jul 12, 12:00 pm)100% (Jul 4, 6:00 am)30.62 "Hg (Jul 4, 6:00 am)
Low33 °F (Jul 10, 5:00 am)20% (Jul 18, 2:00 pm)29.74 "Hg (Jul 11, 5:00 am)
Average53 °F67%30.16 "Hg
* Reported Jul 3 9:00 pm — Jul 18 9:00 pm, Campbelltown. Weather by CustomWeather, © 2019

Note: Actual official high and low records may vary slightly from our data, if they occured in-between our weather recording intervals... More about our weather records

Advertising

Campbelltown Weather History for the Previous 24 Hours

Scroll right to see more
 ConditionsComfort  
Time TempWeatherWind HumidityBarometerVisibility
9:00 pm
Thu, Jul 18
49 °FCool.8 mph57%30.08 "HgN/A
8:00 pm47 °FCool.1 mph56%30.06 "HgN/A
6:00 pm54 °FCool.6 mph41%30.03 "HgN/A
5:00 pm59 °FRefreshingly cool.10 mph33%30.01 "HgN/A
3:00 pm67 °FMild.12 mph24%29.96 "HgN/A
2:00 pm67 °FMild.15 mph20%29.96 "HgN/A
12:00 pm65 °FMild.12 mph27%29.97 "HgN/A
11:00 am63 °FMild.6 mph35%29.99 "HgN/A
9:00 am58 °FRefreshingly cool.10 mph51%30.00 "HgN/A
8:00 am54 °FCool.No wind58%29.99 "HgN/A
6:00 am51 °FCool.9 mph61%29.94 "HgN/A
5:00 am51 °FCool.7 mph59%29.93 "HgN/A
3:00 am53 °FCool.7 mph54%29.92 "HgN/A
2:00 am54 °FCool.12 mph54%29.93 "HgN/A
12:00 am53 °FCool.12 mph52%29.95 "HgN/A
11:00 pm
Wed, Jul 17
53 °FCool.10 mph49%29.95 "HgN/A
Weather by CustomWeather, © 2019

See weather overview